Total_Precipitation_Accumulation
1.50 1.39 1.35 1.51 1.50 1.63 1.68 1.77 1.82 1.67 1.47 1.31 1.31 1.28 1.36 1.36 1.28 1.24 1.53 1.81 2.14 2.75 3.07 3.02 2.87 2.69 2.66 2.63 2.53 2.48 2.42 2.31 2.50 2.89 3.48 3.74 3.46 2.94 2.61 2.33 2.08 1.83 1.87
1.33 1.36 1.25 1.32 1.42 1.63 1.88 1.98 1.80 1.70 1.58 1.50 1.50 1.43 1.43 1.39 1.35 1.25 1.39 1.53 1.52 1.84 2.41 2.98 3.21 3.10 2.97 2.90 2.71 2.65 2.58 2.42 2.45 2.63 2.69 2.83 2.89 2.61 2.33 2.28 2.10 1.87 2.01
1.14 1.24 1.30 1.29 1.34 1.61 1.91 2.12 1.99 1.85 1.66 1.62 1.59 1.54 1.45 1.45 1.39 1.34 1.45 1.60 1.46 1.45 1.85 2.50 3.14 3.37 3.18 3.05 2.86 2.75 2.53 2.28 2.20 2.28 2.38 2.35 2.49 2.48 2.31 2.22 2.11 1.99 2.00
1.16 1.25 1.35 1.31 1.33 1.58 1.86 2.11 2.17 2.15 2.04 1.94 1.81 1.70 1.61 1.70 1.56 1.46 1.55 1.69 1.79 1.62 1.66 2.01 2.51 3.00 3.17 3.16 2.86 2.58 2.32 2.11 2.07 2.04 2.11 1.97 2.11 2.31 2.32 2.23 2.22 2.29 2.24
1.20 1.31 1.52 1.55 1.56 1.74 1.84 1.87 2.04 2.09 2.14 2.10 1.85 1.79 1.71 1.80 1.87 1.77 1.86 1.98 2.03 1.95 1.82 1.75 1.92 2.13 2.68 3.02 2.96 2.72 2.52 2.24 2.08 1.97 2.07 1.92 1.92 2.19 2.31 2.17 2.22 2.35 2.36
1.42 1.38 1.55 1.61 1.66 1.92 1.97 2.01 2.24 2.23 2.15 2.21 1.97 1.84 1.79 1.79 1.81 2.01 2.16 2.19 2.17 1.99 1.95 1.80 1.88 1.82 2.17 2.60 2.73 2.69 2.61 2.60 2.49 2.29 2.32 2.20 2.02 2.15 2.29 2.16 2.22 2.28 2.38
1.51 1.54 1.61 1.67 1.71 1.84 1.90 2.01 2.37 2.42 2.26 2.12 2.29 2.28 2.16 1.95 1.85 1.93 2.06 2.28 2.36 2.14 2.05 2.05 1.95 1.86 1.77 1.93 2.14 2.43 2.56 2.84 2.96 2.75 2.57 2.38 2.17 2.29 2.42 2.28 2.31 2.30 2.29
1.44 1.40 1.63 1.78 1.76 1.93 1.98 2.13 2.43 2.69 2.43 2.23 2.58 3.06 2.80 2.49 2.12 1.88 1.91 1.97 2.20 2.18 2.01 1.88 1.81 1.80 1.76 1.74 1.63 1.91 2.27 2.77 3.19 3.02 2.63 2.49 2.34 2.26 2.38 2.32 2.31 2.26 2.25
1.69 1.65 1.76 1.93 1.90 1.98 2.09 2.13 2.22 2.74 2.90 2.64 2.56 3.15 3.02 2.76 2.70 2.15 1.73 1.62 1.89 2.08 2.06 1.92 1.87 1.95 1.95 1.93 1.72 1.60 1.84 2.26 2.90 2.97 2.70 2.70 2.62 2.41 2.25 2.16 2.15 2.26 2.35
1.95 1.82 1.87 1.97 2.02 2.10 2.07 1.89 2.05 2.55 3.08 3.13 2.88 2.65 2.48 2.40 2.58 2.50 1.93 1.58 1.63 1.82 2.02 1.91 1.90 2.01 2.07 2.14 2.04 1.73 1.57 1.77 2.34 2.91 3.08 3.01 2.89 2.66 2.44 2.27 2.20 2.23 2.22
1.99 1.84 1.80 1.96 2.07 2.14 2.12 2.15 2.29 2.59 2.91 3.20 3.15 2.89 2.60 2.33 1.91 2.10 2.15 1.92 1.62 1.52 1.61 1.74 1.89 1.95 2.02 2.03 2.08 1.90 1.55 1.42 1.73 2.39 2.99 3.15 3.04 2.91 2.79 2.71 2.73 2.66 2.49
1.85 1.80 1.79 1.85 1.86 1.94 2.03 2.19 2.42 2.55 2.72 2.95 3.02 2.71 2.57 2.47 2.23 2.04 1.89 1.97 1.92 1.60 1.45 1.45 1.57 1.76 1.83 1.93 1.82 1.85 1.58 1.36 1.38 1.57 1.99 2.53 2.76 2.89 2.96 3.01 2.99 2.85 2.79
1.63 1.63 1.67 1.70 1.65 1.67 1.80 1.96 2.18 2.21 2.32 2.52 2.63 2.53 2.39 2.22 2.15 2.19 2.12 2.01 1.86 1.58 1.44 1.29 1.36 1.51 1.51 1.69 1.86 1.83 1.56 1.44 1.30 1.25 1.32 1.56 1.97 2.32 2.65 2.97 3.10 3.07 3.04
1.42 1.36 1.39 1.46 1.48 1.50 1.57 1.73 1.87 1.86 1.92 2.10 2.15 2.23 2.16 2.07 2.07 2.05 2.07 2.21 2.07 1.84 1.48 1.14 1.19 1.35 1.32 1.41 1.71 1.77 1.40 1.32 1.19 1.14 1.16 1.22 1.37 1.65 2.01 2.33 2.62 2.82 2.89
1.16 1.13 1.18 1.30 1.39 1.40 1.42 1.57 1.69 1.64 1.71 1.84 1.98 2.14 2.08 2.01 1.98 2.00 2.05 2.15 2.20 2.07 1.78 1.31 1.14 1.11 1.15 1.24 1.57 1.44 1.31 1.30 1.17 1.11 1.05 1.04 1.08 1.17 1.36 1.62 1.83 2.00 2.09
1.08 1.09 1.11 1.12 1.16 1.20 1.26 1.45 1.62 1.68 1.67 1.73 1.81 1.93 2.06 2.05 2.04 2.01 2.07 2.09 2.07 2.06 1.92 1.50 1.22 1.10 1.19 1.14 1.34 1.10 1.21 1.40 1.18 1.03 0.98 0.96 0.97 1.02 1.07 1.23 1.30 1.28 1.28
0.85 0.87 0.87 0.93 1.06 1.07 1.09 1.27 1.37 1.39 1.51 1.61 1.58 1.62 1.78 1.90 2.01 2.02 2.02 2.02 2.05 2.01 1.88 1.63 1.29 1.13 1.27 1.30 1.34 1.14 1.10 1.15 1.08 1.04 0.97 0.91 0.88 0.94 0.93 0.96 1.00 0.95 0.92
0.62 0.68 0.75 0.76 0.94 1.10 1.13 1.18 1.19 1.18 1.32 1.41 1.43 1.51 1.55 1.56 1.67 1.79 1.91 1.88 1.92 1.96 1.93 1.82 1.53 1.30 1.30 1.40 1.57 1.52 1.38 1.26 1.24 1.32 1.25 1.09 0.99 0.98 0.99 0.95 0.91 0.84 0.76
0.55 0.62 0.72 0.73 0.78 0.92 1.04 1.05 1.05 1.07 1.12 1.17 1.21 1.28 1.31 1.39 1.53 1.54 1.61 1.68 1.74 1.79 1.91 1.86 1.78 1.65 1.49 1.43 1.51 1.50 1.52 1.63 1.56 1.53 1.55 1.37 1.20 1.11 1.07 1.06 1.01 0.90 0.79
0.59 0.61 0.58 0.62 0.68 0.79 0.91 0.93 0.95 0.95 0.95 0.96 1.07 1.14 1.20 1.25 1.35 1.41 1.42 1.55 1.68 1.75 1.79 1.76 1.71 1.64 1.58 1.54 1.55 1.54 1.61 1.73 1.79 1.65 1.59 1.50 1.44 1.35 1.23 1.17 1.09 1.02 0.94
0.43 0.47 0.44 0.45 0.50 0.60 0.67 0.69 0.76 0.84 0.88 0.91 1.00 1.02 1.06 1.04 1.09 1.15 1.15 1.33 1.48 1.65 1.72 1.75 1.65 1.54 1.49 1.51 1.50 1.52 1.60 1.80 1.83 1.83 1.78 1.64 1.52 1.35 1.28 1.23 1.16 1.12 1.07
0.30 0.35 0.37 0.41 0.43 0.45 0.57 0.59 0.59 0.69 0.79 0.84 0.91 0.94 1.02 1.05 1.01 0.96 0.93 0.99 1.11 1.23 1.43 1.56 1.60 1.53 1.45 1.43 1.54 1.66 1.65 1.77 1.88 1.78 1.65 1.72 1.64 1.55 1.39 1.24 1.27 1.27 1.19
0.32 0.34 0.37 0.42 0.38 0.37 0.45 0.42 0.54 0.71 0.73 0.73 0.74 0.88 0.99 1.02 1.07 1.06 0.96 0.94 0.92 0.94 1.04 1.23 1.37 1.38 1.38 1.41 1.51 1.63 1.71 1.76 1.64 1.67 1.60 1.69 1.67 1.55 1.38 1.35 1.42 1.30 1.25
0.33 0.38 0.39 0.43 0.37 0.30 0.36 0.39 0.48 0.59 0.64 0.62 0.65 0.77 0.92 1.04 1.08 1.10 1.06 1.10 1.05 0.92 0.88 0.94 1.12 1.22 1.25 1.42 1.61 1.79 1.90 1.89 1.77 1.69 1.59 1.62 1.55 1.42 1.31 1.29 1.41 1.30 1.21
0.30 0.36 0.44 0.43 0.36 0.29 0.33 0.39 0.49 0.59 0.67 0.66 0.66 0.72 0.88 0.96 1.11 1.15 1.08 1.17 1.15 0.94 0.85 0.93 0.97 1.06 1.19 1.34 1.56 1.79 1.87 1.88 1.85 1.74 1.52 1.37 1.28 1.33 1.35 1.29 1.28 1.27 1.17
0.30 0.34 0.38 0.37 0.32 0.33 0.36 0.38 0.44 0.48 0.59 0.67 0.71 0.73 0.95 1.01 1.09 1.05 1.00 1.20 1.29 1.12 0.85 0.84 0.91 1.05 1.15 1.31 1.55 1.73 1.98 1.98 1.79 1.70 1.52 1.35 1.31 1.39 1.53 1.41 1.23 1.14 1.08